Location: Unspecified
(32.9622°N, 0.0000°E)
Time: 06:09:00
(UTC+00:00)

ACS3 Solar Sail - Visible Passes

Search period start: 04 April 2026 00:00
Search period end: 14 April 2026 00:00
Orbit: 874 x 980 km, 97.2° (Epoch: 29 March)

Date Brightness Start Highest point End Pass type
(mag) Time Alt. Az. Time Alt. Az. Time Alt. Az.
4 Apr 4.2 01:45:41 10° N 01:46:32 14° N 01:46:32 14° N visible
5 Apr 4.1 01:55:59 10° N 01:56:56 15° N 01:56:56 15° N visible
6 Apr 4.0 02:06:17 10° N 02:07:17 15° NNW 02:07:17 15° NNW visible
7 Apr 4.5 00:33:56 10° NNE 00:33:58 10° NNE 00:33:58 10° NNE visible
7 Apr 4.0 02:16:35 10° NNW 02:17:34 14° NNW 02:17:34 14° NNW visible
8 Apr 4.4 00:43:42 10° NNE 00:44:12 12° NNE 00:44:12 12° NNE visible
8 Apr 4.0 02:26:55 10° NNW 02:27:47 13° NNW 02:27:47 13° NNW visible
9 Apr 4.3 00:53:29 10° NNE 00:54:22 15° NNE 00:54:22 15° NNE visible
9 Apr 4.0 02:37:19 10° NNW 02:37:56 12° NNW 02:37:56 12° NNW visible
10 Apr 4.1 01:03:17 10° NNE 01:04:28 17° NNE 01:04:28 17° NNE visible
10 Apr 4.1 02:47:50 10° NNW 02:48:03 11° NW 02:48:03 11° NW visible
11 Apr 4.0 01:13:04 10° NNE 01:14:31 18° NNE 01:14:31 18° NNE visible
12 Apr 3.9 01:22:50 10° N 01:24:30 20° N 01:24:30 20° N visible
13 Apr 3.8 01:32:36 10° N 01:34:26 21° N 01:34:26 21° N visible
